Location: Wangen+im+Allg�u
(47.7098°N, 9.8383°E)
Time: 20:21:36
(UTC+01:00)

ISS - Pass Details

Date: 12 January 2018
Orbit: 402 x 407 km, 51.6° (Epoch: 20 January)

Event Time Altitude Azimuth Distance (km) Brightness Sun altitude
Exits shadow 06:24:03 45° 266° (W) 564 -3.6 -16.6°
Maximum altitude 06:24:48 62° 209° (SSW) 462 -3.7 -16.5°
Drops below altitude 10° 06:28:03 10° 128° (SE) 1,462 0.1 -16.0°
Sets 06:30:08 0° 125° (SE) 2,320 1.4 -15.6°
